Regional Weather Roundup
Issued by NWS

Home | Current Version | Previous Version | Graphics & Text | Print | Product List | Glossary On
Versions: 1 2 3 4 5 6 7 8 9 10 11 12 13 14 15 16 17 18 19 20 21 22 23 24 25 26 27 28 29 30 31 32 33 34 35 36 37 38 39 40 41 42 43 44 45 46 47 48 49 50
000
ASUS43 KOAX 160602
RWRNE

WEATHER ROUNDUP FOR NEBRASKA
NATIONAL WEATHER SERVICE OMAHA NE
100 AM CDT TUE SEP 16 2014

NOTES: SATELLITE DATA IS BEING USED TO AUGMENT CLOUD COVER ABOVE
       12000 FEET.
       "FAIR" INDICATES FEW OR NO CLOUDS BELOW 12,000 FEET WITH NO
       SIGNIFICANT WEATHER AND/OR OBSTRUCTIONS TO VISIBILITY.

  * THESE STATIONS DO NOT REPORT WEATHER SUCH AS RAIN...SNOW OR FOG.

NEZ001>004-019>022-054>056-160700-
NEBRASKA PANHANDLE

CITY           SKY/WX    TMP DP  RH WIND       PRES   REMARKS
SCOTTSBLUFF    PTCLDY    53  48  83 E8        30.16F
6HR MIN TEMP:  53; 6HR MAX TEMP:  70;

ALLIANCE       PTCLDY    53  46  77 S10       30.18S
6HR MIN TEMP:  49; 6HR MAX TEMP:  64;

CHADRON        CLEAR     60  47  61 S12       30.08F
6HR MIN TEMP:  57; 6HR MAX TEMP:  69;

KIMBALL        PTCLDY    52  51  94 S8        30.19F
SIDNEY         CLEAR     56  49  77 S13       30.21F
6HR MIN TEMP:  52; 6HR MAX TEMP:  66;

$$

NEZ057>060-069>072-079>082-160700-
SOUTHWEST NEBRASKA

CITY           SKY/WX    TMP DP  RH WIND       PRES   REMARKS
NORTH PLATTE   CLEAR     43  41  93 E6        30.23F
6HR MIN TEMP:  43; 6HR MAX TEMP:  63;

IMPERIAL       CLEAR     51  43  74 S12       30.24S
6HR MIN TEMP:  49; 6HR MAX TEMP:  67;

LEXINGTON      CLEAR     47  43  87 S5        30.26S FOG
MCCOOK         CLEAR     51  43  74 SE8       30.26F
6HR MIN TEMP:  50; 6HR MAX TEMP:  66;

OGALLALA       CLEAR     53  46  77 SE5       30.22S
$$

NEZ005>010-023>029-035>040-094-160700-
NORTH CENTRAL NEBRASKA

CITY           SKY/WX    TMP DP  RH WIND       PRES   REMARKS
VALENTINE      CLEAR     53  40  61 S10       30.17F
6HR MIN TEMP:  50; 6HR MAX TEMP:  64;

AINSWORTH      CLEAR     45  39  78 S8        30.20F
BROKEN BOW     CLEAR     40  38  93 CALM      30.24S
6HR MIN TEMP:  40; 6HR MAX TEMP:  64;

O`NEILL        CLEAR     46  41  83 SE3       30.24S
ORD            CLEAR     42  39  89 CALM      30.24S
6HR MIN TEMP:  42; 6HR MAX TEMP:  62;

THEDFORD       CLEAR     51  43  73 S9        30.22F
$$

NEZ041-046>049-061>064-073>077-083>087-160700-
SOUTH CENTRAL NEBRASKA

CITY           SKY/WX    TMP DP  RH WIND       PRES   REMARKS
GRAND ISLAND   CLEAR     48  43  82 SE6       30.26F
6HR MIN TEMP:  46; 6HR MAX TEMP:  62;

AURORA         CLEAR     46  43  88 E6        30.26F
HASTINGS       CLEAR     49  42  77 SE6       30.26F
6HR MIN TEMP:  47; 6HR MAX TEMP:  62;

HEBRON         CLEAR     44  41  90 CALM      30.28S
HOLDREGE       CLEAR     46  41  84 CALM      30.26S
KEARNEY *      CLEAR     45  39  81 S7        30.27R
$$

NEZ011>018-030>034-042>045-160700-
NORTHEAST NEBRASKA

CITY           SKY/WX    TMP DP  RH WIND       PRES   REMARKS
NORFOLK        CLEAR     41  39  93 CALM      30.26S
6HR MIN TEMP:  40; 6HR MAX TEMP:  60;

ALBION         CLEAR     40  37  91 CALM      30.26S
BLAIR          CLEAR     50  45  84 CALM      30.26S
COLUMBUS *       N/A     41  39  93 CALM      30.27S VSB 3/4
FREMONT        CLEAR     46  45  94 CALM      30.27S
TEKAMAH        CLEAR     44  41  89 CALM      30.27R
6HR MIN TEMP:  43; 6HR MAX TEMP:  62;

WAYNE          CLEAR     40  39  96 CALM      30.26S
$$

NEZ050>053-065>068-078-088>093-160700-
SOUTHEAST NEBRASKA

CITY           SKY/WX    TMP DP  RH WIND       PRES   REMARKS
LINCOLN        CLEAR     43  41  93 CALM      30.28S
6HR MIN TEMP:  43; 6HR MAX TEMP:  61;

OMAHA EPPLEY   CLEAR     48  46  93 CALM      30.27S
6HR MIN TEMP:  48; 6HR MAX TEMP:  61;

BEATRICE       CLEAR     44  42  92 CALM      30.27S
FALLS CITY     CLEAR     48  46  93 NW3       30.26S
6HR MIN TEMP:  48; 6HR MAX TEMP:  63;

NEBRASKA CITY  CLEAR     52  41  66 CALM      30.27S
PLATTSMOUTH    CLEAR     48  44  85 CALM      30.26S
$$

NEZ044-045-051>053-067-160700-
OMAHA AREA

CITY           SKY/WX    TMP DP  RH WIND       PRES   REMARKS
OMAHA EPPLEY   CLEAR     48  46  93 CALM      30.27S
6HR MIN TEMP:  48; 6HR MAX TEMP:  61;

BLAIR          CLEAR     50  45  84 CALM      30.26S
FREMONT        CLEAR     46  45  94 CALM      30.27S
MILLARD        CLEAR     47  46  96 CALM      30.27R
PLATTSMOUTH    CLEAR     48  44  85 CALM      30.26S
WAHOO          FAIR      44  41  91 CALM      30.27S
$$



USA.gov is the U.S. government's official web portal to all federal, state and local government web resources and services.